TimeCST,TemperatureF,Dew PointF,Humidity,Sea Level PressureIn,VisibilityMPH,Wind Direction,Wind SpeedMPH,Gust SpeedMPH,PrecipitationIn,Events,Conditions,WindDirDegrees,DateUTC
12:53 AM,27.0,17.1,66,30.30,10.0,NNW,6.9,-,N/A,,Clear,340,2013-01-22 06:53:00
1:53 AM,26.1,18.0,71,30.31,10.0,NNW,5.8,-,N/A,,Clear,330,2013-01-22 07:53:00
2:53 AM,25.0,17.1,72,30.31,10.0,NNW,4.6,-,N/A,,Clear,340,2013-01-22 08:53:00
3:53 AM,25.0,17.1,72,30.31,10.0,North,5.8,-,N/A,,Clear,350,2013-01-22 09:53:00
4:53 AM,24.1,17.1,75,30.33,10.0,NNE,4.6,-,N/A,,Clear,20,2013-01-22 10:53:00
5:53 AM,25.0,14.0,63,30.35,10.0,NE,3.5,-,N/A,,Clear,40,2013-01-22 11:53:00
6:53 AM,24.1,12.9,62,30.38,10.0,NNE,4.6,-,N/A,,Clear,20,2013-01-22 12:53:00
7:53 AM,26.1,14.0,60,30.40,10.0,North,6.9,-,N/A,,Clear,10,2013-01-22 13:53:00
8:53 AM,28.9,14.0,54,30.42,10.0,North,8.1,-,N/A,,Clear,10,2013-01-22 14:53:00
9:53 AM,30.9,14.0,50,30.44,10.0,North,6.9,-,N/A,,Clear,360,2013-01-22 15:53:00
10:53 AM,33.1,12.9,43,30.43,10.0,North,8.1,-,N/A,,Clear,360,2013-01-22 16:53:00
11:53 AM,35.1,14.0,42,30.40,10.0,NW,8.1,-,N/A,,Clear,310,2013-01-22 17:53:00
12:53 PM,36.0,15.1,43,30.38,10.0,West,6.9,-,N/A,,Clear,280,2013-01-22 18:53:00
1:53 PM,37.0,16.0,42,30.37,10.0,Variable,3.5,-,N/A,,Clear,0,2013-01-22 19:53:00
2:53 PM,37.0,17.1,44,30.37,10.0,SW,5.8,-,N/A,,Clear,230,2013-01-22 20:53:00
3:53 PM,37.9,16.0,41,30.38,10.0,West,5.8,-,N/A,,Clear,280,2013-01-22 21:53:00
4:53 PM,37.0,17.1,44,30.38,10.0,West,4.6,-,N/A,,Scattered Clouds,270,2013-01-22 22:53:00
5:53 PM,37.0,16.0,42,30.37,10.0,WNW,4.6,-,N/A,,Overcast,300,2013-01-22 23:53:00
6:53 PM,37.0,18.0,46,30.37,10.0,Calm,Calm,-,N/A,,Overcast,0,2013-01-23 00:53:00
7:53 PM,36.0,16.0,44,30.36,10.0,NE,4.6,-,N/A,,Overcast,50,2013-01-23 01:53:00
8:53 PM,35.1,16.0,46,30.36,10.0,NE,4.6,-,N/A,,Overcast,50,2013-01-23 02:53:00
9:53 PM,35.1,16.0,46,30.36,10.0,NE,3.5,-,N/A,,Overcast,40,2013-01-23 03:53:00
10:53 PM,35.1,18.0,50,30.36,10.0,Calm,Calm,-,N/A,,Overcast,0,2013-01-23 04:53:00
11:53 PM,35.1,19.0,52,30.36,10.0,Calm,Calm,-,N/A,,Overcast,0,2013-01-23 05:53:00